Wind_Speed
37 38 39 40 40 41 42 43 42 43 44 45 45 45 45 45 44 44 44 44 45 45 46 47 48 49 49 50 50 51 51 51 51 51 51 50 50 50 50 49 49 48 47
36 38 40 41 42 43 44 44 43 43 44 45 46 46 46 46 46 46 45 45 46 46 46 47 48 49 50 50 50 51 52 52 51 51 51 50 49 50 49 49 49 48 47
37 38 39 40 41 42 42 44 44 43 44 45 46 47 48 47 47 46 47 46 46 47 47 47 48 49 50 50 50 50 50 50 50 50 50 50 49 48 47 48 48 47 48
37 38 38 39 40 41 42 42 42 43 44 45 46 46 46 47 47 46 45 45 47 47 47 47 47 47 48 48 47 47 48 48 49 49 50 50 49 49 48 47 48 48 49
36 37 39 39 40 40 40 41 41 42 43 44 45 45 46 46 46 46 46 46 46 47 48 48 47 46 45 45 45 45 46 47 47 48 49 50 50 50 49 48 48 49 49
35 36 37 38 39 40 40 40 40 41 41 43 44 44 44 44 45 45 45 45 46 46 46 46 46 45 43 43 43 45 45 46 47 48 49 50 50 51 51 50 48 47 47
34 35 35 37 38 39 39 40 40 40 40 41 42 42 42 42 43 43 44 44 45 45 44 43 43 43 42 42 43 44 46 47 47 48 48 49 50 51 50 49 49 47 46
33 34 34 35 36 36 37 38 39 39 39 39 40 40 40 41 42 42 43 43 43 42 41 40 40 41 42 43 43 43 45 45 45 46 47 47 49 49 49 49 49 48 47
32 33 33 33 33 34 35 36 36 37 38 38 38 38 39 40 41 41 42 41 41 41 41 41 40 40 41 42 42 43 44 44 44 44 44 45 47 48 49 49 50 50 50
30 31 32 32 32 33 35 35 36 36 37 37 38 37 38 39 40 40 39 38 38 39 39 39 39 39 40 40 41 41 41 41 42 43 43 43 45 46 48 49 49 50 51
30 30 31 32 32 32 33 34 35 35 35 36 36 36 37 38 37 37 37 38 37 37 38 37 38 39 40 40 40 40 40 41 42 42 43 44 44 45 46 47 47 49 49
30 30 30 31 32 33 34 34 34 34 34 35 35 35 35 35 35 35 36 37 36 36 36 36 37 39 40 40 40 39 40 40 41 41 42 42 42 43 43 45 46 46 46
30 30 30 31 32 33 33 33 33 33 33 33 33 33 34 34 33 34 35 35 35 34 34 34 36 38 39 39 39 39 39 40 40 41 41 40 40 41 42 43 43 43 44
29 29 30 30 31 31 31 31 31 32 32 33 32 32 32 32 33 33 33 33 33 33 33 33 34 35 37 37 38 38 38 39 39 40 40 40 40 40 41 41 41 42 42
29 29 29 30 30 30 30 31 31 31 32 32 32 31 31 31 31 31 31 31 31 32 31 32 32 33 34 35 36 36 37 38 38 38 39 39 40 39 39 40 40 40 41
29 29 29 30 30 30 30 30 30 30 31 31 30 30 30 30 30 30 30 30 29 30 30 31 31 32 33 33 34 35 36 36 36 36 36 37 38 38 38 37 37 38 39
28 29 29 29 29 29 30 30 29 29 29 29 29 29 29 29 29 29 29 29 29 29 30 31 31 32 31 31 32 33 34 34 35 35 35 35 35 36 35 35 35 35 36
26 27 27 28 28 28 28 29 28 28 28 28 28 28 28 29 29 29 29 29 29 29 30 30 30 30 31 32 32 32 32 33 33 34 34 34 34 33 33 33 34 34 34
27 27 27 27 27 27 27 28 27 27 27 27 28 28 29 29 29 28 27 28 29 29 29 29 30 30 31 31 32 32 32 32 32 32 32 32 32 31 32 32 32 32 31
27 26 26 26 26 26 26 26 26 27 27 27 27 28 28 28 28 28 27 29 29 29 29 30 29 29 29 30 31 31 32 31 31 30 29 30 30 30 31 30 30 30 29
27 26 25 25 25 26 26 25 25 26 26 26 27 27 27 27 27 28 28 28 28 29 28 29 28 27 27 28 28 29 29 28 27 27 27 27 28 29 29 29 29 28 28
27 26 26 25 25 25 25 25 25 25 24 25 25 26 27 27 27 27 27 28 28 28 27 27 27 26 26 26 25 26 26 26 26 26 27 27 28 27 27 27 27 27 26
26 26 26 26 26 25 25 24 25 24 24 24 24 25 26 26 26 26 26 27 27 26 26 25 25 24 24 23 24 24 24 23 24 25 26 26 26 26 26 25 26 26 26
26 26 26 26 25 24 24 24 24 24 24 24 24 24 25 24 24 24 24 23 23 24 23 23 23 22 22 22 22 22 22 23 22 22 22 23 23 23 23 23 23 23 23
25 25 24 24 24 24 24 25 24 24 23 23 22 22 22 21 20 19 19 19 20 21 21 20 20 19 19 20 20 20 21 22 21 21 20 21 21 21 21 21 22 21 20
23 23 23 22 23 23 23 24 24 23 21 20 19 18 18 18 17 16 16 17 17 18 17 17 17 17 18 18 19 19 20 20 20 19 19 19 19 19 18 19 19 19 19
Wind_Direction
258 258 257 258 260 260 261 262 261 260 260 261 263 264 265 265 265 266 267 268 269 267 267 267 266 265 264 264 263 262 261 262 262 262 262 262 263 263 263 263 263 264 265
259 260 261 262 262 263 264 264 264 264 263 263 264 264 265 265 265 266 267 269 270 269 269 268 268 267 264 264 263 262 262 262 262 262 261 260 260 260 261 261 262 263 265
261 262 262 263 264 264 265 266 266 266 266 265 265 265 265 266 267 267 268 269 269 270 269 269 270 268 265 263 262 262 261 260 261 262 262 261 260 258 259 260 261 263 264
264 263 264 265 265 265 266 267 268 268 268 267 265 266 266 266 266 266 267 268 269 269 270 270 269 267 266 264 262 261 261 260 260 260 262 262 261 259 259 259 261 263 264
266 265 265 265 265 266 266 267 269 269 269 269 266 266 268 267 266 266 267 268 269 269 269 269 268 267 265 263 262 262 261 261 262 262 262 262 262 262 261 261 262 262 263
269 269 268 267 266 266 266 268 268 269 270 270 269 267 268 268 268 267 267 268 269 269 270 268 266 266 264 262 262 263 263 263 264 264 264 265 264 263 263 263 263 263 264
270 270 270 269 268 268 268 269 269 270 271 271 270 269 269 269 269 267 266 268 269 268 269 267 264 263 263 264 264 264 264 264 265 266 266 265 265 264 263 263 263 264 264
271 271 272 271 270 270 271 270 270 270 271 272 272 272 270 270 270 268 267 267 267 267 266 266 263 262 263 265 266 266 266 266 267 267 267 266 266 265 264 264 264 263 263
273 272 273 274 273 272 272 271 271 271 271 272 273 274 272 271 270 268 269 268 267 266 266 265 262 262 263 264 265 266 266 267 268 269 269 269 268 267 266 266 266 266 266
275 274 274 275 275 274 273 273 273 272 272 272 274 275 273 272 270 268 269 269 268 267 266 264 262 262 262 264 265 266 267 267 268 269 270 271 270 269 269 268 268 268 268
275 275 275 275 276 275 275 274 274 272 272 273 275 274 273 272 271 269 269 269 269 268 267 265 264 264 263 263 265 266 266 267 268 269 270 272 271 271 271 270 269 268 269
276 276 275 275 275 277 277 276 275 274 273 274 274 273 272 272 272 272 269 268 268 267 267 266 265 264 264 264 266 267 267 268 269 269 271 272 273 273 272 270 270 270 270
279 276 276 276 276 278 279 279 277 275 275 275 274 272 271 271 273 273 270 270 270 269 268 268 267 266 265 265 266 267 268 269 269 270 272 272 273 273 272 272 271 271 271
281 278 277 277 278 279 279 278 278 277 277 277 274 272 270 270 272 273 272 273 272 270 269 268 269 267 265 266 266 266 268 269 269 270 270 271 272 273 272 272 272 273 273
282 281 279 278 279 279 278 277 278 279 278 278 275 272 270 271 273 273 274 274 275 272 270 269 270 269 268 267 267 267 268 270 270 270 271 271 272 274 274 274 274 274 274
282 282 282 280 280 280 278 278 278 280 280 278 276 272 271 271 273 274 275 275 275 272 271 273 273 272 271 271 270 269 270 271 271 271 272 272 273 274 275 274 273 274 274
282 283 284 284 283 281 279 278 279 280 280 278 275 273 272 273 274 274 274 275 275 274 272 272 273 272 272 273 273 273 272 272 272 273 273 273 273 273 272 272 273 275 276
284 286 287 287 286 284 281 280 281 281 282 280 277 274 272 274 275 273 272 274 274 275 274 274 273 272 274 275 275 274 273 273 274 273 272 273 272 271 271 271 272 275 276
285 285 286 288 287 285 284 285 282 282 282 281 278 275 273 274 274 272 271 273 275 276 277 278 277 275 274 273 273 274 274 273 274 274 273 272 271 270 271 273 274 274 275
287 286 287 287 287 286 287 287 283 282 282 281 278 277 275 274 273 272 272 274 275 276 278 281 280 278 276 273 273 274 275 274 272 272 272 271 271 271 272 273 274 273 274
287 286 286 287 288 287 287 287 285 285 283 283 280 278 277 277 275 274 274 275 276 277 279 281 281 279 277 277 276 275 275 273 272 272 272 272 272 273 274 274 273 273 274
287 286 286 287 289 289 288 287 286 285 285 284 282 281 280 279 275 275 275 275 276 279 279 279 279 279 278 278 277 276 275 272 272 273 273 273 275 276 278 277 275 274 274
287 288 288 288 289 290 290 288 287 286 285 284 283 282 282 281 277 275 275 275 275 276 277 277 278 278 277 277 276 277 277 275 274 274 274 275 277 277 277 276 274 273 273
289 290 290 289 289 288 288 289 289 288 287 284 283 283 284 284 280 276 276 274 272 273 274 276 276 276 278 277 276 277 277 276 276 278 278 277 278 279 278 275 274 274 273
292 292 292 291 290 288 287 287 288 289 290 286 284 283 283 282 280 280 275 272 274 275 276 277 278 276 277 277 277 277 278 277 274 276 278 279 280 281 279 277 275 274 275
294 295 294 292 290 288 287 288 288 290 291 288 285 284 284 281 278 277 277 275 277 277 277 279 279 275 274 276 277 277 280 279 276 276 280 281 281 280 279 280 279 277 277
Height
5684 5685 5687 5688 5688 5689 5690 5691 5692 5692 5693 5694 5695 5696 5696 5697 5697 5697 5696 5696 5695 5695 5695 5695 5695 5695 5695 5696 5697 5698 5699 5700 5701 5703 5704 5707 5709 5710 5712 5714 5716 5718 5720
5676 5676 5677 5678 5679 5679 5680 5680 5681 5681 5682 5683 5684 5685 5685 5685 5686 5685 5685 5684 5684 5683 5683 5683 5682 5682 5683 5683 5684 5685 5686 5687 5688 5689 5690 5694 5697 5698 5700 5702 5704 5706 5707
5666 5667 5668 5668 5669 5669 5669 5670 5670 5670 5671 5671 5672 5673 5673 5674 5674 5674 5674 5673 5672 5671 5671 5670 5669 5669 5670 5670 5671 5672 5673 5674 5676 5676 5677 5680 5683 5687 5690 5690 5692 5694 5695
5657 5657 5657 5658 5658 5658 5659 5659 5659 5659 5659 5659 5660 5661 5661 5662 5663 5662 5662 5661 5660 5659 5658 5657 5656 5656 5657 5657 5658 5659 5660 5662 5664 5664 5665 5667 5670 5673 5677 5680 5681 5682 5683
5648 5648 5648 5648 5648 5648 5648 5649 5649 5649 5649 5648 5649 5649 5649 5650 5650 5649 5649 5648 5647 5646 5645 5644 5644 5644 5644 5645 5646 5647 5649 5650 5652 5653 5654 5656 5657 5659 5662 5666 5669 5670 5671
5640 5639 5638 5638 5638 5638 5638 5638 5639 5638 5638 5638 5637 5638 5638 5638 5637 5637 5636 5636 5635 5634 5632 5631 5631 5632 5633 5635 5636 5637 5638 5639 5640 5641 5642 5644 5646 5647 5648 5651 5654 5656 5659
5631 5630 5629 5628 5628 5628 5628 5628 5628 5628 5628 5627 5627 5627 5627 5626 5625 5625 5624 5624 5623 5622 5621 5620 5620 5621 5622 5624 5625 5626 5627 5628 5629 5630 5631 5631 5632 5634 5635 5637 5639 5642 5645
5622 5621 5621 5620 5619 5618 5618 5618 5618 5618 5617 5617 5617 5616 5615 5614 5614 5613 5612 5612 5611 5611 5610 5610 5610 5611 5612 5613 5615 5616 5616 5617 5618 5618 5619 5619 5620 5621 5622 5624 5625 5627 5631
5613 5613 5612 5611 5610 5609 5609 5608 5608 5608 5607 5607 5607 5606 5604 5604 5603 5602 5601 5600 5600 5599 5599 5599 5599 5601 5602 5603 5604 5605 5606 5606 5607 5607 5607 5608 5608 5609 5610 5611 5612 5613 5615
5606 5605 5604 5603 5602 5601 5600 5599 5599 5598 5598 5598 5597 5595 5594 5593 5592 5591 5591 5590 5589 5588 5588 5589 5589 5591 5591 5592 5593 5594 5595 5595 5596 5596 5596 5596 5596 5597 5597 5598 5599 5599 5600
5598 5597 5596 5595 5594 5593 5592 5591 5590 5589 5589 5588 5586 5585 5584 5583 5582 5581 5581 5580 5579 5579 5579 5579 5580 5581 5581 5582 5583 5584 5584 5585 5585 5585 5585 5585 5585 5585 5585 5586 5586 5586 5586
5590 5589 5588 5587 5586 5585 5583 5582 5581 5581 5580 5578 5577 5576 5575 5574 5573 5571 5571 5570 5570 5570 5569 5570 5571 5571 5572 5572 5573 5573 5574 5574 5575 5574 5574 5574 5574 5574 5574 5574 5574 5575 5575
5583 5582 5580 5579 5578 5576 5575 5573 5572 5572 5570 5569 5568 5566 5565 5564 5563 5562 5562 5561 5561 5560 5560 5560 5561 5561 5561 5562 5563 5563 5564 5564 5564 5564 5564 5564 5564 5564 5564 5563 5563 5564 5563
5575 5574 5573 5571 5570 5568 5567 5565 5564 5563 5561 5560 5558 5557 5556 5556 5555 5554 5553 5552 5552 5551 5552 5552 5551 5551 5551 5551 5552 5553 5553 5554 5554 5554 5554 5554 5554 5553 5553 5553 5553 5552 5552
5567 5566 5564 5563 5562 5560 5558 5557 5556 5554 5552 5551 5549 5548 5547 5547 5546 5545 5544 5544 5543 5543 5542 5542 5542 5542 5542 5542 5542 5543 5544 5544 5544 5544 5543 5543 5543 5543 5542 5542 5542 5541 5541
5559 5558 5556 5555 5553 5552 5550 5549 5547 5545 5543 5541 5540 5539 5539 5538 5538 5537 5537 5536 5536 5535 5534 5534 5533 5533 5533 5533 5533 5533 5534 5534 5534 5534 5534 5534 5533 5533 5532 5532 5532 5531 5531
5552 5550 5548 5546 5545 5543 5542 5540 5539 5537 5535 5533 5532 5531 5531 5530 5530 5529 5529 5529 5528 5527 5527 5527 5526 5526 5526 5525 5525 5524 5524 5525 5525 5525 5525 5525 5524 5524 5523 5523 5523 5522 5521
5544 5542 5540 5539 5537 5535 5533 5531 5530 5529 5527 5525 5524 5523 5523 5522 5522 5522 5521 5521 5521 5521 5520 5519 5519 5519 5518 5517 5517 5516 5516 5516 5516 5516 5516 5516 5515 5515 5515 5515 5514 5513 5512
5537 5535 5533 5531 5529 5527 5525 5524 5522 5521 5519 5517 5517 5516 5515 5514 5514 5514 5514 5514 5513 5513 5512 5511 5511 5511 5510 5509 5509 5508 5508 5508 5508 5507 5507 5507 5507 5507 5507 5506 5506 5505 5504
5529 5527 5525 5524 5522 5520 5518 5516 5515 5513 5512 5510 5509 5508 5507 5506 5506 5506 5506 5506 5505 5505 5505 5504 5503 5502 5502 5501 5501 5500 5500 5500 5500 5500 5499 5499 5499 5499 5498 5498 5498 5497 5496
5522 5520 5518 5517 5515 5513 5511 5509 5507 5505 5504 5502 5501 5500 5499 5498 5498 5498 5498 5498 5497 5497 5497 5497 5495 5494 5493 5493 5492 5492 5492 5492 5492 5492 5492 5491 5491 5490 5490 5489 5489 5489 5488
5515 5513 5511 5510 5508 5506 5504 5502 5500 5498 5496 5495 5494 5493 5492 5491 5490 5491 5490 5490 5490 5490 5489 5489 5488 5487 5486 5486 5485 5484 5484 5484 5484 5485 5484 5484 5483 5483 5482 5482 5481 5481 5481
5508 5506 5504 5502 5500 5498 5497 5495 5493 5491 5490 5488 5487 5486 5484 5484 5483 5483 5483 5482 5482 5482 5482 5482 5481 5481 5480 5479 5478 5478 5477 5477 5477 5477 5477 5476 5476 5475 5475 5474 5474 5474 5474
5501 5499 5497 5495 5493 5491 5490 5488 5486 5484 5483 5482 5480 5479 5478 5477 5476 5476 5476 5476 5475 5475 5475 5475 5475 5474 5473 5473 5472 5471 5471 5471 5470 5470 5470 5469 5468 5468 5468 5468 5467 5467 5467
5494 5492 5490 5488 5486 5484 5483 5481 5479 5478 5476 5475 5474 5472 5471 5471 5470 5470 5469 5470 5470 5469 5470 5469 5469 5468 5468 5467 5466 5466 5466 5465 5465 5464 5464 5463 5463 5462 5461 5461 5461 5461 5460
5487 5485 5483 5481 5479 5478 5476 5474 5472 5471 5470 5469 5468 5467 5466 5466 5466 5465 5465 5464 5464 5464 5464 5464 5464 5463 5463 5462 5461 5461 5460 5459 5459 5459 5458 5458 5457 5456 5455 5455 5455 5454 5454